Location: Unspecified
(0.0000°N, 0.0000°E)
Time: 09:09:14
(UTC+02:00)

USA 116 - Visible Passes

Search period start: 30 April 2016 00:00
Search period end: 10 May 2016 00:00
Orbit: 405 x 834 km, 97.9° (Epoch: 18 November)

Date Brightness Start Highest point End Pass type
(mag) Time Alt. Az. Time Alt. Az. Time Alt. Az.
30 Apr 6.7 06:01:29 10° ESE 06:03:37 15° ENE 06:05:51 10° NE visible
01 May 5.9 06:14:33 10° SE 06:17:31 25° ENE 06:20:47 10° NNE visible
02 May 4.9 06:28:04 10° SSE 06:31:28 42° ENE 06:35:16 10° N visible
03 May 3.8 06:41:51 10° SSE 06:45:26 76° ENE 06:49:30 10° N visible
04 May 3.6 06:55:49 10° S 06:59:26 62° W 07:03:31 10° NNW visible
05 May 4.2 07:10:01 10° SSW 07:13:28 37° W 07:17:18 10° NNW visible
06 May 7.1 05:50:35 10° E 05:52:00 12° ENE 05:53:26 10° NE visible
06 May 4.9 07:24:29 10° SSW 07:27:31 23° W 07:30:50 10° NW visible
07 May 6.6 06:03:04 10° ESE 06:05:54 19° ENE 06:08:57 10° NNE visible
08 May 5.8 06:16:21 10° SE 06:19:50 30° ENE 06:23:42 10° NNE visible
09 May 4.8 06:29:56 10° SSE 06:33:46 49° ENE 06:38:07 10° N visible
